EW0767 Weather Reports


time (UTC)temp
C
wind
direction
speed
KPH
gust
KPH
rain 1hr
cm
rain 24hr
cm
rain mn
cm
humidity
%
barometer
mb
20260504141104 15 99 1.6 3.2 0.00 0.00 0.00 48 1010.8
20260504081104 5 232 0.0 0.0 0.00 0.00 0.00 70 1010.7
20260504045948 6 225 0.0 0.0 0.00 0.00 0.00 68 1011.0
20260504045305 6 215 0.0 0.0 0.00 0.00 0.00 70 1011.1
20260504044105 5 215 0.0 0.0 0.00 0.00 0.00 70 1011.0
20260504042947 6 215 0.0 0.0 0.00 0.00 0.00 68 1011.1
20260504042304 6 215 0.0 0.0 0.00 0.00 0.00 68 1011.0
20260504035950 6 215 0.0 0.0 0.00 0.00 0.00 64 1010.9
20260504035301 6 215 0.0 0.0 0.00 0.00 0.00 64 1010.9
20260504034101 6 215 0.0 0.0 0.00 0.00 0.00 64 1010.9
20260504032948 6 215 0.0 0.0 0.00 0.00 0.00 62 1010.9
20260504031103 5 82 0.0 0.0 0.00 0.00 0.00 65 1010.7
20260504025951 5 82 0.0 0.0 0.00 0.00 0.00 64 1010.6
20260504025304 5 82 0.0 0.0 0.00 0.00 0.00 62 1010.7
20260504024101 5 82 0.0 0.0 0.00 0.00 0.00 64 1010.8
20260504022304 6 82 0.0 0.0 0.00 0.00 0.00 59 1010.8
20260504021106 6 82 0.0 0.0 0.00 0.00 0.00 60 1010.7
20260504015947 6 82 0.0 0.0 0.00 0.00 0.00 59 1010.7
20260504015304 6 82 0.0 0.0 0.00 0.00 0.00 58 1010.6
20260504014104 6 82 0.0 0.0 0.00 0.00 0.00 57 1010.4
20260504012947 7 82 0.0 0.0 0.00 0.00 0.00 57 1010.2
20260504012305 7 82 0.0 0.0 0.00 0.00 0.00 52 1010.2
20260504011103 7 82 0.0 0.0 0.00 0.00 0.00 50 1010.1
20260504005950 8 82 0.0 0.0 0.00 0.00 0.00 50 1010.0
20260504005302 8 82 0.0 0.0 0.00 0.00 0.00 49 1009.9
20260504004101 8 82 0.0 0.0 0.00 0.00 0.00 49 1009.7
20260504002949 8 82 0.0 0.0 0.00 0.00 0.00 49 1009.6
20260504002305 8 82 0.0 0.0 0.00 0.00 0.00 49 1009.4
20260504001059 8 82 0.0 0.0 0.00 0.00 0.00 46 1009.3
20260503235304 8 205 0.0 0.0 0.00 0.00 0.00 50 1009.0
20260503234102 9 201 0.0 0.0 0.00 0.00 0.00 46 1008.9
20260503232956 9 151 0.0 0.0 0.00 0.00 0.00 45 1008.9
20260503232300 10 98 0.0 0.0 0.00 0.00 0.00 43 1008.6
20260503231100 10 295 0.0 0.0 0.00 0.00 0.00 43 1008.6
20260503225948 10 264 0.0 1.6 0.00 0.00 0.00 40 1008.6
20260503225305 10 193 0.0 0.0 0.00 0.00 0.00 42 1008.6
20260503224105 10 91 1.6 3.2 0.00 0.00 0.00 40 1008.5
20260503222304 11 232 0.0 1.6 0.00 0.00 0.00 42 1008.5
20260503221102 11 72 0.0 0.0 0.00 0.00 0.00 44 1008.5
20260503215950 11 124 1.6 4.8 0.00 0.00 0.00 40 1008.6
20260503215307 11 179 0.0 0.0 0.00 0.00 0.00 40 1008.5
20260503214102 11 210 0.0 1.6 0.00 0.00 0.00 41 1008.5
20260503212305 11 85 0.0 1.6 0.00 0.00 0.00 41 1008.3
20260503211105 11 143 1.6 6.4 0.00 0.00 0.00 40 1008.4
20260503205304 12 246 1.6 8.0 0.00 0.00 0.00 42 1008.4
20260503204103 12 257 3.2 6.4 0.00 0.00 0.00 42 1008.2
20260503202945 11 33 1.6 8.0 0.00 0.00 0.00 43 1008.5
20260503202308 11 71 0.0 0.0 0.00 0.00 0.00 44 1008.4
20260503201108 11 53 4.8 14.5 0.00 0.00 0.00 41 1008.4
20260503195946 10 53 3.2 6.4 0.00 0.00 0.00 45 1008.3
20260503192948 11 79 0.0 3.2 0.00 0.00 0.00 45 1008.6
20260503192305 11 91 0.0 1.6 0.00 0.00 0.00 44 1008.5
20260503191103 11 323 3.2 14.5 0.00 0.00 0.00 43 1008.6
20260503185946 11 16 3.2 14.5 0.00 0.00 0.00 41 1008.2
20260503185304 11 358 1.6 4.8 0.00 0.00 0.00 45 1008.5
20260503184103 11 172 1.6 4.8 0.00 0.00 0.00 46 1008.7
20260503182949 10 71 0.0 1.6 0.00 0.00 0.00 48 1008.8
20260503182300 10 204 0.0 4.8 0.00 0.00 0.00 46 1008.5
20260503181100 10 181 0.0 4.8 0.00 0.00 0.00 47 1008.7
20260503175947 10 204 4.8 11.3 0.00 0.00 0.00 45 1008.6
20260503175305 10 232 1.6 3.2 0.00 0.00 0.00 46 1008.5
20260503174105 10 15 8.0 20.9 0.00 0.00 0.00 42 1008.5
20260503172302 11 29 1.6 6.4 0.00 0.00 0.00 44 1008.3
20260503171102 11 235 1.6 4.8 0.00 0.00 0.00 49 1008.3